{"data":{"norad_id":56218,"intl_designator":"2023-054AS","name":"KEPLER-21","alt_names":[],"object_type":"PAYLOAD","status":"ACTIVE","operator":null,"country":"CA","launch_date":"2023-04-15","launch_site_code":"AFWTR","launch_vehicle":null,"mission":null,"orbit_class":"UNKNOWN","rcs_meters":null,"size_class":null,"mass_kg":null,"dimensions":null,"purposes":[],"wikipedia_slug":null,"has_3d_model":false,"image_url":null,"decayed_at":null,"tle_current":{"epoch":"2026-05-25T00:47:18.235680Z","epoch_age_seconds":82695,"freshness":"FRESH","line1":"1 56218U 23054AS  26145.03284995  .00155301  10703-4  54412-3 0  9993","line2":"2 56218  97.2875  63.3248 0006490 109.7217 250.4756 15.89232251175532","mean_motion":15.89232251,"eccentricity":0.000649,"inclination_deg":97.2875,"raan_deg":63.3248,"arg_perigee_deg":109.7217,"mean_anomaly_deg":250.4756,"bstar":0.00054412,"rev_number":17553,"period_min":90.609789670069,"perigee_km":300.09721294061,"apogee_km":308.77119036035,"semimajor_km":6682.5712016505,"source":"CELESTRAK","updated_at":"2026-05-25T13:37:59.400939Z"}}}